This demonstration page uses our WeatherBlox Daily Observations layout. Learn more.

Hourly Observations for August 21, 2017

Temp ( °F °C ) Dew Point ( °F °C ) Humidity (%) Winds ( mph kmh ) Pressure ( in mb ) Visibility ( mi km ) Precip ( " mm )
12:15 am 00:15 Partly Cloudy 72 22 70 21 94 94 Calm 30.21 1023 10 16.09344 0 0
12:35 am 00:35 Mostly Cloudy 72 22 70 21 94 94 Calm 30.21 1023 10 16.09344 0 0
12:55 am 00:55 Partly Cloudy 72 22 70 21 94 94 Calm 30.21 1023 10 16.09344 0 0
1:15 am 01:15 Clear 70 21 70 21 100 100 Calm 30.21 1023 10 16.09344 0 0
1:35 am 01:35 Clear 70 21 70 21 100 100 Calm 30.21 1023 10 16.09344 0 0
1:55 am 01:55 Clear 70 21 70 21 100 100 Calm 30.21 1023 10 16.09344 0 0
2:15 am 02:15 Partly Cloudy 70 21 70 21 100 100 Calm 30.21 1023 10 16.09344 0 0
2:35 am 02:35 Mostly Cloudy 70 21 70 21 100 100 Calm 30.21 1023 10 16.09344 0 0
2:55 am 02:55 Mostly Cloudy 70 21 70 21 100 100 Calm 30.21 1023 10 16.09344 0 0
3:15 am 03:15 Cloudy 70 21 70 21 100 100 Calm 30.21 1023 10 16.09344 0 0
3:35 am 03:35 Mostly Cloudy 70 21 70 21 100 100 Calm 30.21 1023 10 16.09344 0 0
3:55 am 03:55 Partly Cloudy 70 21 70 21 100 100 Calm 30.21 1023 10 16.09344 0 0
4:15 am 04:15 Partly Cloudy 70 21 70 21 100 100 Calm 30.21 1023 10 16.09344 0 0
4:35 am 04:35 Mostly Cloudy 70 21 70 21 100 100 Calm 30.21 1023 10 16.09344 0 0
4:55 am 04:55 Cloudy 70 21 70 21 100 100 Calm 30.21 1023 10 16.09344 0 0
5:15 am 05:15 Partly Cloudy 72 22 70 21 94 94 Calm 30.21 1023 10 16.09344 0 0
5:35 am 05:35 Clear 70 21 70 21 100 100 Calm 30.21 1023 10 16.09344 0 0
5:55 am 05:55 Partly Cloudy 70 21 70 21 100 100 Calm 30.21 1023 10 16.09344 0 0
6:15 am 06:15 Mostly Cloudy 70 21 70 21 100 100 Calm 30.21 1023 10 16.09344 0 0
6:35 am 06:35 Partly Cloudy 70 21 68 20 94 94 Calm 30.21 1023 10 16.09344 0 0
6:55 am 06:55 Partly Cloudy 70 21 70 21 100 100 Calm 30.21 1023 10 16.09344 0 0
7:15 am 07:15 Sunny 70 21 70 21 100 100 Calm 30.21 1023 10 16.09344 0 0
7:35 am 07:35 Sunny 70 21 70 21 100 100 Calm 30.21 1023 10 16.09344 0 0
7:55 am 07:55 Sunny 72 22 72 22 100 100 Calm 30.21 1023 10 16.09344 0 0
8:15 am 08:15 Sunny 73 23 72 22 94 94 SSW 3 6 30.21 1023 10 16.09344 0 0
8:35 am 08:35 Sunny 77 25 72 22 83 83 Calm 30.21 1023 10 16.09344 0 0
8:55 am 08:55 Sunny 77 25 73 23 89 89 Calm 30.21 1023 10 16.09344 0 0
9:15 am 09:15 Sunny 79 26 73 23 84 84 S 3 6 30.21 1023 10 16.09344 0 0
9:35 am 09:35 Sunny 79 26 73 23 84 84 S 3 6 30.21 1023 10 16.09344 0 0
9:55 am 09:55 Sunny 81 27 73 23 79 79 SSE 5 7 30.21 1023 10 16.09344 0 0
10:15 am 10:15 Sunny 82 28 75 24 79 79 SW 5 7 30.21 1023 10 16.09344 0 0
10:35 am 10:35 Partly Cloudy 82 28 75 24 79 79 S 5 7 30.21 1023 10 16.09344 0 0
10:55 am 10:55 Sunny 82 28 75 24 79 79 S 3 6 30.21 1023 10 16.09344 0 0
11:15 am 11:15 Sunny 86 30 77 25 75 75 Calm 30.21 1023 10 16.09344 0 0
11:35 am 11:35 Sunny 86 30 77 25 75 75 ESE 3 6 30.21 1023 10 16.09344 0 0
11:55 am 11:55 Sunny 86 30 77 25 75 75 Calm 30.21 1023 10 16.09344 0 0
12:15 pm 12:15 Sunny 86 30 77 25 75 75 SSE 3 6 30.18 1022 10 16.09344 0 0
12:35 pm 12:35 Partly Cloudy 88 31 77 25 70 70 S 6 9 30.18 1022 10 16.09344 0 0
12:55 pm 12:55 Partly Cloudy 88 31 77 25 70 70 SSE 3 6 30.18 1022 10 16.09344 0 0
1:15 pm 13:15 Partly Cloudy 90 32 77 25 67 67 WSW 6 9 30.18 1022 10 16.09344 0 0
1:35 pm 13:35 Partly Cloudy 90 32 75 24 63 63 S 6 9 30.18 1022 10 16.09344 0 0
1:55 pm 13:55 Partly Cloudy 91 33 77 25 63 63 SSW 6 9 30.12 1020 10 16.09344 0 0
2:15 pm 14:15 Sunny 90 32 77 25 67 67 SW 3 6 30.12 1020 10 16.09344 0 0
2:35 pm 14:35 Sunny 88 31 75 24 66 66 SSE 3 6 30.15 1021 10 16.09344 0 0
2:55 pm 14:55 Sunny 88 31 77 25 70 70 Calm 30.15 1021 10 16.09344 0 0
3:15 pm 15:15 Sunny 88 31 77 25 70 70 SW 3 6 30.15 1021 10 16.09344 0 0
3:35 pm 15:35 Sunny 90 32 77 25 67 67 SSW 5 7 30.12 1020 10 16.09344 0 0
3:55 pm 15:55 Sunny 91 33 77 25 63 63 SW 6 9 30.09 1019 10 16.09344 0 0
4:15 pm 16:15 Sunny 90 32 73 23 59 59 S 10 17 30.09 1019 10 16.09344 0 0
4:35 pm 16:35 Sunny 90 32 73 23 59 59 SSW 8 13 30.09 1019 10 16.09344 0 0
4:55 pm 16:55 Sunny 90 32 73 23 59 59 S 7 11 30.09 1019 10 16.09344 0 0
5:15 pm 17:15 Sunny 90 32 73 23 59 59 S 9 15 30.09 1019 10 16.09344 0 0
5:35 pm 17:35 Sunny 88 31 73 23 62 62 S 6 9 30.12 1020 10 16.09344 0 0
5:55 pm 17:55 Sunny 88 31 75 24 66 66 S 7 11 30.12 1020 10 16.09344 0 0
6:15 pm 18:15 Sunny 88 31 77 25 70 70 SW 6 9 30.12 1020 10 16.09344 0 0
6:35 pm 18:35 Sunny 86 30 77 25 75 75 S 13 20 30.12 1020 10 16.09344 0 0
6:55 pm 18:55 Sunny 86 30 72 22 62 62 S 13 20 30.12 1020 10 16.09344 0 0
7:15 pm 19:15 Sunny 82 28 72 22 70 70 S 8 13 30.12 1020 10 16.09344 0 0
7:35 pm 19:35 Sunny 81 27 72 22 74 74 S 8 13 30.15 1021 10 16.09344 0 0
7:55 pm 19:55 Sunny 81 27 72 22 74 74 S 7 11 30.15 1021 10 16.09344 0 0
8:15 pm 20:15 Clear 79 26 72 22 79 79 SSW 7 11 30.15 1021 10 16.09344 0 0
8:35 pm 20:35 Clear 79 26 73 23 84 84 SW 7 11 30.15 1021 10 16.09344 0 0
8:55 pm 20:55 Clear 79 26 72 22 79 79 SSW 6 9 30.15 1021 10 16.09344 0 0
9:15 pm 21:15 Clear 77 25 72 22 83 83 SSW 5 7 30.15 1021 10 16.09344 0 0
9:35 pm 21:35 Clear 77 25 72 22 83 83 SSW 6 9 30.15 1021 10 16.09344 0 0
9:55 pm 21:55 Clear 77 25 72 22 83 83 SW 6 9 30.15 1021 10 16.09344 0 0
10:15 pm 22:15 Clear 77 25 72 22 83 83 SSW 3 6 30.15 1021 10 16.09344 0 0
10:35 pm 22:35 Clear 77 25 72 22 83 83 S 5 7 30.15 1021 10 16.09344 0 0
10:55 pm 22:55 Clear 75 24 72 22 89 89 S 5 7 30.15 1021 10 16.09344 0 0
11:15 pm 23:15 Clear 73 23 72 22 94 94 SW 3 6 30.12 1020 10 16.09344 0 0
11:35 pm 23:35 Clear 73 23 72 22 94 94 SW 3 6 30.12 1020 10 16.09344 0 0
11:55 pm 23:55 Clear 73 23 72 22 94 94 W 3 6 30.12 1020 10 16.09344 0 0

Powered by AerisWeather